Regional Weather Roundup
Issued by NWS

Home | Current Version | Previous Version | Text Only | Print | Product List | Glossary On
Versions: 1 2 3 4 5 6 7 8 9 10 11 12 13 14 15 16 17 18 19 20 21 22 23 24 25 26 27 28 29 30 31 32 33 34 35 36 37 38 39 40 41 42 43 44 45 46 47 48 49 50
781
ASUS42 KFFC 210610
RWRGA
WEATHER ROUNDUP FOR GEORGIA
NATIONAL WEATHER SERVICE PEACHTREE CITY GA
100 AM EST SAT JAN 21 2017

NOTE: "FAIR" INDICATES FEW OR NO CLOUDS BELOW 12,000 FEET WITH NO
SIGNIFICANT WEATHER AND/OR OBSTRUCTIONS TO VISIBILITY.

* = USE WITH CAUTION. THE STATIONS MARKED WITH AN ASTERISK MAY NOT
REPORT WEATHER SUCH AS PRECIPITATION, FOG, OR THUNDER AND ARE NOT
QUALITY CONTROLLED BY NWS.

THE REMARK "TC" DENOTES TEMPERATURE READING IN DEGREES CELSIUS.

GAZ001>058-210700-
NORTH GEORGIA

CITY           SKY/WX    TMP DP  RH WIND       PRES   REMARKS
ATLANTA        CLOUDY    62  61  96 S6        29.87S
6HR MIN TEMP:  60; 6HR MAX TEMP:  66;

ATHENS         PTCLDY    55  55 100 CALM      29.87F
6HR MIN TEMP:  55; 6HR MAX TEMP:  65;

CHAMBLEE       PTCLDY    56  54  93 CALM      29.87S
6HR MIN TEMP:  54; 6HR MAX TEMP:  65;

PEACHTREE CITY MOCLDY    54  53  97 CALM      29.87F
6HR MIN TEMP:  53; 6HR MAX TEMP:  63;

ROME           MOCLDY    55  52  89 CALM      29.83F
6HR MIN TEMP:  55; 6HR MAX TEMP:  63;

WEST ATLANTA   CLOUDY    56  53  90 CALM      29.86F
6HR MIN TEMP:  55; 6HR MAX TEMP:  67;

GAINESVILLE    PTCLDY    60  58  92 CALM      29.89S
6HR MIN TEMP:  59; 6HR MAX TEMP:  65;

CARTERSVILLE   PTCLDY    54  53  97 CALM      29.85F
6HR MIN TEMP:  54; 6HR MAX TEMP:  64;



CITY           SKY/WX    TMP DP  RH WIND       PRES   REMARKS
DALTON*        CLOUDY    57  55  94 CALM      29.85F
MARIETTA       MOCLDY    55  54  94 CALM      29.86F
CANTON*        PTCLDY    55  52  88 CALM      29.88F
$$

GAZ059>098-102>109-210700-
CENTRAL GEORGIA

CITY           SKY/WX    TMP DP  RH WIND       PRES   REMARKS
AUGUSTA-BUSH   CLOUDY    61  56  83 CALM      29.88F
6HR MIN TEMP:  58; 6HR MAX TEMP:  69;

AUGUSTA-DANIEL PTCLDY    65  58  78 SE3       29.89F
6HR MIN TEMP:  64; 6HR MAX TEMP:  71;

COLUMBUS       CLOUDY    64  64 100 S7        29.85F FOG
6HR MIN TEMP:  63; 6HR MAX TEMP:  68;

MACON          CLOUDY    65  63  93 S3        29.87F
6HR MIN TEMP:  64; 6HR MAX TEMP:  68;

ROBINS AFB     CLOUDY    66  64  94 S5        29.86F


CITY           SKY/WX    TMP DP  RH WIND       PRES   REMARKS
LAGRANGE*      FOG       61  61 100 CALM      29.84F VSB 1/4
SYLVANIA*      CLOUDY   N/A N/A N/A CALM      29.89F
MILLEDGEVILLE* PTCLDY    57  57 100 CALM      29.88F
$$

GAZ099>101-110>166-210700-
SOUTH GEORGIA

CITY           SKY/WX    TMP DP  RH WIND       PRES   REMARKS
SAVANNAH       CLOUDY    65  62  90 S7        29.90F
6HR MIN TEMP:  63; 6HR MAX TEMP:  67; 6HR PCP: TRACE;

VALDOSTA       CLOUDY    69  68  96 S8        29.91F
6HR MIN TEMP:  68; 6HR MAX TEMP:  71; 6HR PCP: TRACE;

ALMA           MOCLDY    68  67  96 S8        29.89F
6HR MIN TEMP:  67; 6HR MAX TEMP:  69; 6HR PCP: TRACE;

ST SIMONS      PTCLDY    69  64  84 S8        29.91F
6HR MIN TEMP:  67; 6HR MAX TEMP:  71;

FT STEWART     CLOUDY    64  63  96 CALM      29.87F
ALBANY         CLOUDY    68  68 100 SW5       29.89F
HUNTER AFB     CLOUDY    65  65 100 SE6       29.87F
MOODY AFB      CLOUDY    69  67  95 S8        29.90S
BRUNSWICK      MOCLDY    70  68  94 SW8       29.92F


CITY           SKY/WX    TMP DP  RH WIND       PRES   REMARKS
BAINBRIDGE*    CLOUDY    70  68  94 S7        29.87F
MOULTRIE*      CLOUDY    70  68  94 S6        29.90F
VIDALIA*       CLOUDY    66  66 100 CALM      29.89S
WAYCROSS*      MOCLDY    70  70 100 S7        29.91F
DOUGLAS*       CLOUDY    68  64  88 SW9       29.91F
$$




USA.gov is the U.S. government's official web portal to all federal, state and local government web resources and services.